Location: Chiroubles
(46.1812°N, 4.6660°E)
Time: 11:02:16
(UTC+00:00)

N. Korean satellite - Pass Details

Date: 03 November 2020
Orbit: 453 x 503 km, 97.2° (Epoch: 03 December)

Event Time Altitude Azimuth Distance (km) Brightness Sun altitude
Rises 05:27:14 0° 10° (N) 2,478 10.2 -10.5°
Reaches altitude 10° 05:29:16 10° 8° (N) 1,600 9.2 -10.2°
Maximum altitude 05:32:41 69° 285° (WNW) 493 6.3 -9.6°
Drops below altitude 10° 05:36:04 10° 202° (SSW) 1,595 9.1 -9.0°
Sets 05:38:07 0° 199° (SSW) 2,470 10.1 -8.7°
